When you browse on this site, cookies collect data to enhance your experience and personalize the content and advertising you see.
Visit our Privacy Policy to learn more. By continuing to use the site, you agree to this use of cookies and data.
  • In Hungary
  • List of Countries
  • For 7 days
  • Water Temperature
  • Satellite Maps
  • Weather Map
  • News
  • Weather Widgets
  • user-avatar
    Login

    Hourly Weather Racula

    Today, 11 December, Tuesday

    Time Temperature Precipitation Wind Pressure Humidity
    00:00 +1°C° 0.1 mm 5 mps 745 mmHg 79%
    01:00 +1°C° 0 mm 4 mps 744 mmHg 81%
    02:00 +1°C° 0.5 mm 5 mps 744 mmHg 81%
    03:00 +1°C° 0.5 mm 5 mps 744 mmHg 81%
    04:00 +1°C° 0.5 mm 5 mps 744 mmHg 81%
    05:00 +1°C° 0.7 mm 5 mps 744 mmHg 80%
    06:00 +1°C° 0.7 mm 5 mps 744 mmHg 80%
    07:00 +1°C° 0.7 mm 6 mps 744 mmHg 79%
    08:00 +1°C° 0.4 mm 5 mps 745 mmHg 80%
    09:00 +1°C° 0.4 mm 5 mps 745 mmHg 80%
    10:00 +2°C° 0.4 mm 5 mps 745 mmHg 81%
    11:00 +2°C° 0.3 mm 5 mps 746 mmHg 78%
    12:00 +2°C° 0.3 mm 5 mps 746 mmHg 76%
    13:00 +2°C° 0.3 mm 5 mps 746 mmHg 74%
    14:00 +1°C° 0.1 mm 5 mps 747 mmHg 75%
    15:00 +1°C° 0.1 mm 4 mps 747 mmHg 77%
    16:00 +1°C° 0.1 mm 4 mps 748 mmHg 79%
    17:00 0°C° 0.1 mm 4 mps 748 mmHg 81%
    18:00 +1°C° 0.1 mm 3 mps 748 mmHg 83%
    19:00 +1°C° 0.1 mm 3 mps 749 mmHg 85%
    20:00 +1°C° 0 mm 3 mps 749 mmHg 87%
    21:00 0°C° 0 mm 3 mps 749 mmHg 90%
    22:00 0°C° 0 mm 3 mps 750 mmHg 92%
    23:00 0°C° 0 mm 3 mps 750 mmHg 92%

    Tomorrow, 12 December, Wednesday

    Time Temperature Precipitation Wind Pressure Humidity
    00:00 0°C° 0 mm 3 mps 751 mmHg 93%
    01:00 0°C° 0 mm 3 mps 751 mmHg 93%
    02:00 0°C° 0.1 mm 3 mps 751 mmHg 94%
    03:00 0°C° 0.1 mm 3 mps 752 mmHg 94%
    04:00 0°C° 0.1 mm 3 mps 752 mmHg 94%
    05:00 -1°C° 0 mm 2 mps 753 mmHg 95%
    06:00 -1°C° 0 mm 2 mps 753 mmHg 95%
    07:00 -2°C° 0 mm 2 mps 754 mmHg 95%
    08:00 -1°C° 0 mm 2 mps 754 mmHg 93%
    09:00 -1°C° 0 mm 2 mps 755 mmHg 91%
    10:00 -1°C° 0 mm 2 mps 755 mmHg 88%
    11:00 +1°C° 0 mm 2 mps 755 mmHg 86%
    12:00 +1°C° 0 mm 2 mps 755 mmHg 83%
    13:00 +2°C° 0 mm 2 mps 755 mmHg 80%
    14:00 +1°C° 0 mm 2 mps 756 mmHg 83%
    15:00 +1°C° 0 mm 2 mps 756 mmHg 86%
    16:00 -1°C° 0 mm 2 mps 756 mmHg 90%
    17:00 +1°C° 0 mm 1 mps 756 mmHg 90%
    18:00 +1°C° 0 mm 1 mps 756 mmHg 91%
    19:00 +1°C° 0 mm 1 mps 756 mmHg 92%
    20:00 +1°C° 0 mm 1 mps 757 mmHg 92%
    21:00 +1°C° 0 mm 1 mps 757 mmHg 93%
    22:00 +1°C° 0 mm 1 mps 757 mmHg 94%
    23:00 +1°C° 0 mm 1 mps 757 mmHg 94%

    Day after tomorrow, 13 December, Thursday

    Time Temperature Precipitation Wind Pressure Humidity
    00:00 +1°C° 0 mm 1 mps 757 mmHg 94%
    01:00 +1°C° 0 mm 1 mps 757 mmHg 94%
    02:00 +1°C° 0 mm 1 mps 757 mmHg 94%
    03:00 +1°C° 0 mm 1 mps 756 mmHg 94%
    04:00 +1°C° 0 mm 1 mps 756 mmHg 95%
    05:00 +1°C° 0.1 mm 1 mps 756 mmHg 95%
    06:00 +1°C° 0.1 mm 1 mps 756 mmHg 95%
    07:00 -1°C° 0.1 mm 2 mps 756 mmHg 95%
    08:00 -1°C° 0 mm 2 mps 756 mmHg 93%
    09:00 -1°C° 0 mm 2 mps 756 mmHg 92%
    10:00 -1°C° 0 mm 2 mps 756 mmHg 90%
    11:00 +1°C° 0 mm 2 mps 756 mmHg 88%
    12:00 +1°C° 0 mm 2 mps 756 mmHg 87%
    13:00 +1°C° 0 mm 2 mps 756 mmHg 85%
    14:00 +1°C° 0 mm 2 mps 756 mmHg 86%
    15:00 +1°C° 0 mm 2 mps 756 mmHg 87%
    16:00 -1°C° 0 mm 2 mps 756 mmHg 88%
    17:00 -1°C° 0 mm 2 mps 756 mmHg 88%
    18:00 -1°C° 0 mm 2 mps 756 mmHg 88%
    19:00 -1°C° 0 mm 2 mps 756 mmHg 89%
    20:00 -1°C° 0 mm 2 mps 756 mmHg 89%
    21:00 -1°C° 0 mm 2 mps 757 mmHg 89%
    22:00 -1°C° 0 mm 2 mps 757 mmHg 89%
    23:00 -1°C° 0 mm 2 mps 757 mmHg 89%

    14 December, Friday

    Time Temperature Precipitation Wind Pressure Humidity
    00:00 -1°C° 0 mm 2 mps 757 mmHg 89%
    01:00 -2°C° 0 mm 2 mps 757 mmHg 89%
    02:00 -2°C° 0 mm 2 mps 757 mmHg 89%
    03:00 -2°C° 0 mm 2 mps 757 mmHg 89%
    04:00 -2°C° 0 mm 2 mps 757 mmHg 89%
    05:00 -2°C° 0 mm 2 mps 757 mmHg 88%
    06:00 -2°C° 0 mm 2 mps 757 mmHg 87%
    07:00 -2°C° 0 mm 2 mps 757 mmHg 86%
    08:00 -2°C° 0 mm 2 mps 757 mmHg 84%
    09:00 -1°C° 0 mm 2 mps 757 mmHg 82%
    10:00 -1°C° 0 mm 2 mps 757 mmHg 80%
    11:00 -1°C° 0 mm 2 mps 757 mmHg 78%
    12:00 -1°C° 0 mm 2 mps 757 mmHg 76%
    13:00 +1°C° 0 mm 2 mps 757 mmHg 74%
    14:00 -1°C° 0 mm 2 mps 757 mmHg 77%
    15:00 -1°C° 0 mm 2 mps 757 mmHg 81%
    16:00 -2°C° 0 mm 2 mps 757 mmHg 84%
    17:00 -2°C° 0 mm 2 mps 758 mmHg 84%
    18:00 -2°C° 0 mm 2 mps 758 mmHg 85%
    19:00 -3°C° 0 mm 2 mps 758 mmHg 86%
    20:00 -3°C° 0 mm 2 mps 758 mmHg 86%
    21:00 -3°C° 0 mm 2 mps 759 mmHg 86%
    22:00 -3°C° 0 mm 2 mps 759 mmHg 85%
    23:00 -1°C° 0 mm 1 mps 759 mmHg 85%

    15 December, Saturday

    Time Temperature Precipitation Wind Pressure Humidity
    00:00 -1°C° 0 mm 1 mps 759 mmHg 85%
    01:00 -1°C° 0 mm 1 mps 759 mmHg 85%
    02:00 -1°C° 0 mm 1 mps 759 mmHg 85%
    03:00 -1°C° 0 mm 1 mps 759 mmHg 85%
    04:00 -1°C° 0 mm 1 mps 759 mmHg 86%
    05:00 -1°C° 0 mm 1 mps 759 mmHg 86%
    06:00 -1°C° 0 mm 1 mps 759 mmHg 86%
    07:00 -1°C° 0 mm 1 mps 760 mmHg 87%
    08:00 -3°C° 0 mm 2 mps 760 mmHg 85%
    09:00 -2°C° 0 mm 2 mps 760 mmHg 83%
    10:00 -2°C° 0 mm 2 mps 760 mmHg 82%
    11:00 -1°C° 0 mm 2 mps 760 mmHg 79%
    12:00 -1°C° 0 mm 2 mps 760 mmHg 77%
    13:00 -1°C° 0 mm 2 mps 760 mmHg 74%
    14:00 -1°C° 0 mm 2 mps 760 mmHg 78%
    15:00 -2°C° 0 mm 2 mps 760 mmHg 83%
    16:00 -2°C° 0 mm 2 mps 760 mmHg 87%
    17:00 -2°C° 0 mm 2 mps 760 mmHg 88%
    18:00 -2°C° 0 mm 2 mps 760 mmHg 89%
    19:00 -2°C° 0 mm 2 mps 760 mmHg 91%
    20:00 -3°C° 0 mm 2 mps 760 mmHg 90%
    21:00 -3°C° 0 mm 2 mps 760 mmHg 90%
    22:00 -3°C° 0 mm 2 mps 760 mmHg 90%
    23:00 -3°C° 0 mm 2 mps 760 mmHg 90%

    16 December, Sunday

    Time Temperature Precipitation Wind Pressure Humidity
    00:00 -3°C° 0 mm 2 mps 760 mmHg 90%
    01:00 -4°C° 0 mm 2 mps 760 mmHg 90%
    02:00 -4°C° 0 mm 2 mps 759 mmHg 88%
    03:00 -5°C° 0 mm 3 mps 759 mmHg 87%
    04:00 -5°C° 0 mm 3 mps 758 mmHg 86%
    05:00 -5°C° 0 mm 3 mps 758 mmHg 85%
    06:00 -4°C° 0 mm 4 mps 758 mmHg 84%
    07:00 -4°C° 0 mm 4 mps 758 mmHg 84%
    08:00 -4°C° 0 mm 4 mps 757 mmHg 80%
    09:00 -5°C° 0 mm 5 mps 757 mmHg 77%
    10:00 -4°C° 0 mm 5 mps 757 mmHg 74%
    11:00 -4°C° 0 mm 5 mps 756 mmHg 72%
    12:00 -2°C° 0 mm 5 mps 756 mmHg 70%
    13:00 -2°C° 0 mm 5 mps 755 mmHg 69%
    14:00 -2°C° 0 mm 5 mps 754 mmHg 71%
    15:00 -2°C° 0 mm 5 mps 754 mmHg 73%
    16:00 -4°C° 0 mm 5 mps 753 mmHg 76%
    17:00 -4°C° 0.1 mm 5 mps 753 mmHg 77%
    18:00 -4°C° 0.1 mm 5 mps 752 mmHg 79%
    19:00 -4°C° 0.1 mm 5 mps 752 mmHg 81%
    20:00 -2°C° 0.4 mm 5 mps 751 mmHg 82%
    21:00 -2°C° 0.4 mm 5 mps 751 mmHg 84%
    22:00 -2°C° 0.4 mm 4 mps 751 mmHg 85%
    23:00 -2°C° 0.5 mm 4 mps 750 mmHg 87%
    Show more